When you browse on this site, cookies collect data to enhance your experience and personalize the content and advertising you see.
Visit our Privacy Policy to learn more. By continuing to use the site, you agree to this use of cookies and data.
  • In Hungary
  • List of Countries
  • For 7 days
  • Water Temperature
  • Satellite Maps
  • Weather Map
  • News
  • Weather Widgets
  • user-avatar
    Login

    Hourly Weather Chhata

    Today, 19 January, Saturday

    Time Temperature Precipitation Wind Pressure Humidity
    00:00 +13°C° 0 mm 1 mps 745 mmHg 59%
    01:00 +12°C° 0 mm 1 mps 745 mmHg 59%
    02:00 +12°C° 0 mm 1 mps 745 mmHg 58%
    03:00 +12°C° 0 mm 1 mps 745 mmHg 58%
    04:00 +12°C° 0 mm 1 mps 745 mmHg 57%
    05:00 +11°C° 0 mm 1 mps 745 mmHg 57%
    06:00 +12°C° 0 mm 1 mps 746 mmHg 57%
    07:00 +13°C° 0 mm 1 mps 746 mmHg 57%
    08:00 +13°C° 0 mm 0 mps 746 mmHg 58%
    09:00 +16°C° 0 mm 1 mps 747 mmHg 51%
    10:00 +19°C° 0 mm 1 mps 747 mmHg 45%
    11:00 +22°C° 0 mm 1 mps 747 mmHg 38%
    12:00 +23°C° 0 mm 1 mps 746 mmHg 36%
    13:00 +24°C° 0 mm 1 mps 746 mmHg 34%
    14:00 +25°C° 0 mm 1 mps 745 mmHg 32%
    15:00 +23°C° 0 mm 1 mps 745 mmHg 37%
    16:00 +20°C° 0 mm 0 mps 745 mmHg 42%
    17:00 +18°C° 0 mm 0 mps 745 mmHg 47%
    18:00 +17°C° 0 mm 0 mps 745 mmHg 48%
    19:00 +16°C° 0 mm 0 mps 745 mmHg 48%
    20:00 +15°C° 0 mm 0 mps 746 mmHg 49%
    21:00 +14°C° 0 mm 0 mps 746 mmHg 50%
    22:00 +14°C° 0 mm 0 mps 746 mmHg 50%
    23:00 +14°C° 0 mm 0 mps 746 mmHg 50%

    Tomorrow, 20 January, Sunday

    Time Temperature Precipitation Wind Pressure Humidity
    00:00 +13°C° 0 mm 0 mps 746 mmHg 50%
    01:00 +13°C° 0 mm 0 mps 746 mmHg 50%
    02:00 +13°C° 0 mm 0 mps 745 mmHg 50%
    03:00 +12°C° 0 mm 0 mps 745 mmHg 50%
    04:00 +12°C° 0 mm 0 mps 745 mmHg 50%
    05:00 +12°C° 0 mm 0 mps 745 mmHg 51%
    06:00 +13°C° 0 mm 0 mps 746 mmHg 52%
    07:00 +14°C° 0 mm 0 mps 746 mmHg 54%
    08:00 +15°C° 0 mm 0 mps 747 mmHg 55%
    09:00 +19°C° 0 mm 1 mps 747 mmHg 51%
    10:00 +21°C° 0 mm 1 mps 747 mmHg 46%
    11:00 +23°C° 0 mm 1 mps 747 mmHg 42%
    12:00 +24°C° 0 mm 1 mps 746 mmHg 41%
    13:00 +25°C° 0 mm 1 mps 745 mmHg 41%
    14:00 +26°C° 0 mm 1 mps 745 mmHg 40%
    15:00 +25°C° 0 mm 1 mps 744 mmHg 45%
    16:00 +24°C° 0 mm 1 mps 744 mmHg 51%
    17:00 +22°C° 0 mm 1 mps 744 mmHg 56%
    18:00 +21°C° 0 mm 1 mps 744 mmHg 57%
    19:00 +19°C° 0 mm 2 mps 744 mmHg 58%
    20:00 +18°C° 0 mm 2 mps 745 mmHg 59%
    21:00 +18°C° 0 mm 2 mps 745 mmHg 60%
    22:00 +17°C° 0 mm 2 mps 744 mmHg 60%
    23:00 +17°C° 0 mm 2 mps 744 mmHg 61%

    Day after tomorrow, 21 January, Monday

    Time Temperature Precipitation Wind Pressure Humidity
    00:00 +17°C° 0 mm 2 mps 744 mmHg 61%
    01:00 +16°C° 0 mm 2 mps 744 mmHg 61%
    02:00 +16°C° 0 mm 2 mps 744 mmHg 62%
    03:00 +16°C° 0 mm 2 mps 744 mmHg 62%
    04:00 +16°C° 0 mm 2 mps 744 mmHg 62%
    05:00 +15°C° 0 mm 2 mps 744 mmHg 63%
    06:00 +16°C° 0 mm 3 mps 744 mmHg 64%
    07:00 +16°C° 0 mm 3 mps 745 mmHg 65%
    08:00 +16°C° 0 mm 3 mps 745 mmHg 65%
    09:00 +18°C° 0.1 mm 3 mps 745 mmHg 62%
    10:00 +20°C° 0.1 mm 3 mps 745 mmHg 58%
    11:00 +21°C° 0.1 mm 3 mps 745 mmHg 55%
    12:00 +22°C° 0.1 mm 4 mps 744 mmHg 54%
    13:00 +22°C° 0.1 mm 4 mps 743 mmHg 53%
    14:00 +23°C° 0.1 mm 4 mps 742 mmHg 52%
    15:00 +22°C° 0 mm 4 mps 742 mmHg 56%
    16:00 +21°C° 0 mm 4 mps 742 mmHg 59%
    17:00 +21°C° 0 mm 4 mps 741 mmHg 62%
    18:00 +19°C° 1 mm 4 mps 742 mmHg 70%
    19:00 +18°C° 1 mm 4 mps 742 mmHg 77%
    20:00 +15°C° 1 mm 4 mps 742 mmHg 84%
    21:00 +15°C° 0.5 mm 4 mps 742 mmHg 85%
    22:00 +15°C° 0.5 mm 4 mps 742 mmHg 86%
    23:00 +15°C° 0.5 mm 4 mps 742 mmHg 87%

    22 January, Tuesday

    Time Temperature Precipitation Wind Pressure Humidity
    00:00 +15°C° 0 mm 4 mps 742 mmHg 86%
    01:00 +15°C° 0 mm 4 mps 742 mmHg 85%
    02:00 +15°C° 0 mm 4 mps 741 mmHg 83%
    03:00 +14°C° 0.1 mm 4 mps 741 mmHg 86%
    04:00 +13°C° 0.1 mm 4 mps 741 mmHg 89%
    05:00 +13°C° 0.1 mm 3 mps 741 mmHg 91%
    06:00 +13°C° 0.1 mm 4 mps 742 mmHg 90%
    07:00 +14°C° 0.1 mm 4 mps 743 mmHg 89%
    08:00 +14°C° 0.1 mm 5 mps 744 mmHg 87%
    09:00 +16°C° 0 mm 5 mps 744 mmHg 81%
    10:00 +19°C° 0 mm 5 mps 744 mmHg 74%
    11:00 +20°C° 0 mm 5 mps 744 mmHg 67%
    12:00 +21°C° 0.8 mm 4 mps 744 mmHg 63%
    13:00 +22°C° 0.8 mm 3 mps 743 mmHg 58%
    14:00 +24°C° 0.8 mm 2 mps 742 mmHg 54%
    15:00 +23°C° 0.3 mm 2 mps 742 mmHg 58%
    16:00 +20°C° 0.3 mm 2 mps 742 mmHg 62%
    17:00 +19°C° 0.3 mm 2 mps 742 mmHg 66%
    18:00 +18°C° 0 mm 3 mps 743 mmHg 70%
    19:00 +17°C° 0 mm 3 mps 744 mmHg 74%
    20:00 +16°C° 0 mm 3 mps 744 mmHg 77%
    21:00 +16°C° 0 mm 3 mps 744 mmHg 78%
    22:00 +14°C° 0 mm 3 mps 745 mmHg 78%
    23:00 +15°C° 0 mm 2 mps 745 mmHg 78%

    23 January, Wednesday

    Time Temperature Precipitation Wind Pressure Humidity
    00:00 +15°C° 0 mm 2 mps 745 mmHg 81%
    01:00 +14°C° 0 mm 2 mps 745 mmHg 85%
    02:00 +14°C° 0 mm 2 mps 744 mmHg 89%
    03:00 +13°C° 0 mm 2 mps 744 mmHg 91%
    04:00 +13°C° 0 mm 2 mps 744 mmHg 92%
    05:00 +13°C° 0 mm 2 mps 745 mmHg 94%
    06:00 +14°C° 0 mm 2 mps 745 mmHg 92%
    07:00 +14°C° 0 mm 2 mps 746 mmHg 90%
    08:00 +15°C° 0 mm 2 mps 746 mmHg 87%
    09:00 +17°C° 0 mm 2 mps 746 mmHg 80%
    10:00 +19°C° 0 mm 3 mps 747 mmHg 72%
    11:00 +21°C° 0 mm 3 mps 747 mmHg 64%
    12:00 +22°C° 0.3 mm 3 mps 746 mmHg 61%
    13:00 +24°C° 0.3 mm 2 mps 745 mmHg 59%
    14:00 +24°C° 0.3 mm 2 mps 744 mmHg 56%
    15:00 +23°C° 0.2 mm 2 mps 744 mmHg 60%
    16:00 +21°C° 0.2 mm 2 mps 744 mmHg 63%
    17:00 +21°C° 0.2 mm 1 mps 744 mmHg 67%
    18:00 +19°C° 0.3 mm 2 mps 744 mmHg 71%
    19:00 +18°C° 0.3 mm 2 mps 745 mmHg 75%
    20:00 +17°C° 0.3 mm 3 mps 745 mmHg 79%
    21:00 +16°C° 0 mm 2 mps 745 mmHg 78%
    22:00 +16°C° 0 mm 2 mps 745 mmHg 78%
    23:00 +16°C° 0 mm 2 mps 745 mmHg 78%

    24 January, Thursday

    Time Temperature Precipitation Wind Pressure Humidity
    00:00 +15°C° 0 mm 2 mps 745 mmHg 78%
    01:00 +15°C° 0 mm 2 mps 745 mmHg 79%
    02:00 +14°C° 0 mm 2 mps 745 mmHg 80%
    03:00 +14°C° 0 mm 2 mps 745 mmHg 79%
    04:00 +13°C° 0 mm 2 mps 745 mmHg 79%
    05:00 +13°C° 0 mm 1 mps 745 mmHg 79%
    06:00 +14°C° 0 mm 1 mps 746 mmHg 77%
    07:00 +14°C° 0 mm 1 mps 747 mmHg 75%
    08:00 +15°C° 0 mm 2 mps 747 mmHg 74%
    09:00 +17°C° 0 mm 2 mps 747 mmHg 67%
    10:00 +19°C° 0 mm 2 mps 747 mmHg 61%
    11:00 +21°C° 0 mm 2 mps 747 mmHg 54%
    12:00 +23°C° 0 mm 2 mps 747 mmHg 52%
    13:00 +24°C° 0 mm 2 mps 746 mmHg 51%
    14:00 +25°C° 0 mm 2 mps 745 mmHg 49%
    15:00 +24°C° 0 mm 2 mps 745 mmHg 54%
    16:00 +21°C° 0 mm 2 mps 744 mmHg 59%
    17:00 +20°C° 0 mm 2 mps 744 mmHg 64%
    18:00 +19°C° 0 mm 2 mps 744 mmHg 64%
    19:00 +18°C° 0 mm 2 mps 745 mmHg 64%
    20:00 +17°C° 0 mm 2 mps 745 mmHg 64%
    21:00 +17°C° 0.1 mm 2 mps 745 mmHg 64%
    22:00 +16°C° 0.1 mm 2 mps 745 mmHg 65%
    23:00 +16°C° 0.1 mm 2 mps 745 mmHg 66%
    Show more